DW7098 Weather Reports


time (UTC)temp
F
wind
direction
speed
knots
gust
knots
rain 1hr
in
rain 24hr
in
rain mn
in
humidity
%
barometer
mb
20260901053046 61 234 0.0 1.7 0.00 0.00 0.00
20260901050056 61 205 0.0 0.9 0.00 0.00 0.00
20260901043037 62 257 0.0 0.0 0.00 0.00 0.00
20260901040110 63 263 0.0 0.9 0.00 0.00 0.00
20260901033050 64 248 0.0 1.7 0.00 0.00 0.00
20260901030058 65 257 0.0 1.7 0.00 0.00 0.00
20260901023038 67 221 0.0 1.7 0.00 0.00 0.00
20260901020110 69 237 0.9 3.5 0.00 0.00 0.00
20260901013029 71 195 1.7 4.3 0.00 0.00 0.00
20260901003049 73 233 1.7 3.5 0.00 0.00 0.00
20260901000103 74 14 0.9 4.3 0.00 0.00 0.00
20260831233022 76 96 0.0 4.3 0.00 0.00 0.00
20260831230046 76 137 0.9 6.1 0.00 0.00 0.00
20260831220107 76 242 1.7 6.1 0.00 0.00 0.00
20260831213046 75 153 1.7 6.1 0.00 0.00 0.00
20260831210055 74 192 1.7 5.2 0.00 0.00 0.00
20260831203037 72 173 1.7 6.1 0.00 0.00 0.00
20260831200104 72 350 0.9 6.1 0.00 0.00 0.00
20260831193023 71 99 0.0 4.3 0.00 0.00 0.00
20260831190107 70 69 1.7 7.0 0.00 0.00 0.00
20260831183028 69 63 2.6 7.0 0.00 0.00 0.00
20260831180052 67 55 2.6 7.8 0.00 0.00 0.00
20260831163050 60 86 1.7 3.5 0.00 0.00 0.00
20260831160059 57 59 1.7 2.6 0.00 0.00 0.00
20260831150107 54 273 0.0 0.9 0.00 0.00 0.00
20260831143047 52 273 0.0 0.0 0.00 0.00 0.00
20260831140055 52 273 0.0 0.0 0.00 0.00 0.00
20260831133035 52 273 0.0 0.0 0.00 0.00 0.00
20260831130104 52 273 0.0 0.0 0.00 0.00 0.00
20260831123042 52 273 0.0 0.9 0.00 0.00 0.00
20260831113037 53 273 0.0 0.0 0.00 0.00 0.00
20260831110105 53 273 0.0 0.0 0.00 0.00 0.00
20260831103041 54 273 0.0 0.9 0.00 0.00 0.00
20260831100052 54 273 0.0 0.0 0.00 0.00 0.00
20260831083045 55 273 0.0 0.0 0.00 0.00 0.00
20260831080051 56 273 0.0 0.0 0.00 0.00 0.00
20260831073036 56 273 0.0 0.0 0.00 0.00 0.00
20260831070105 57 273 0.0 0.0 0.00 0.00 0.00
20260831063044 57 273 0.0 0.0 0.00 0.00 0.00
20260831060050 58 273 0.0 0.0 0.00 0.00 0.00